IZ1MEU-13 Weather Reports


time (UTC)temp
F
wind
direction
speed
knots
gust
knots
rain 1hr
in
rain 24hr
in
rain mn
in
humidity
%
barometer
mb
20260506214816 53 0.0 0.0 0.00 0.00 0.00 66 1012.6
20260506212811 53 0.0 0.0 0.00 0.00 0.00 66 1012.4
20260506210807 53 0.0 0.0 0.00 0.00 0.00 67 1012.3
20260506204802 53 0.0 0.0 0.00 0.00 0.00 68 1012.4
20260506202758 52 0.0 0.0 0.00 0.00 0.00 70 1011.5
20260506200754 52 0.0 0.0 0.00 0.00 0.00 70 1011.0
20260506194749 52 0.0 0.0 0.00 0.00 0.00 69 1010.8
20260506192745 52 0.0 0.0 0.00 0.00 0.00 68 1010.3
20260506190741 53 0.0 0.0 0.00 0.00 0.00 66 1010.1
20260506184737 56 0.0 0.0 0.00 0.00 0.00 61 1010.3
20260506182732 56 0.0 0.0 0.00 0.00 0.00 61 1009.2
20260506180728 58 0.0 0.0 0.00 0.00 0.00 60 1008.8
20260506174724 59 0.0 0.0 0.00 0.00 0.00 60 1008.7
20260506172720 59 0.0 0.0 0.00 0.00 0.00 59 1008.5
20260506170715 60 0.0 0.0 0.00 0.00 0.00 57 1008.2
20260506164711 59 0.0 0.0 0.00 0.00 0.00 55 1008.1
20260506162707 60 0.0 0.0 0.00 0.00 0.00 53 1008.0
20260506160703 62 0.0 0.0 0.00 0.00 0.00 52 1008.0
20260506154658 61 0.0 0.0 0.00 0.00 0.00 51 1008.0
20260506152654 62 0.0 0.0 0.00 0.00 0.00 50 1008.0
20260506150650 67 0.0 0.0 0.00 0.00 0.00 45 1007.8
20260506144646 68 0.0 0.0 0.00 0.00 0.00 45 1007.8
20260506142641 68 0.0 0.0 0.00 0.00 0.00 44 1007.9
20260506140637 68 0.0 0.0 0.00 0.00 0.00 45 1008.1
20260506134633 69 0.0 0.0 0.00 0.00 0.00 45 1008.4
20260506132629 70 0.0 0.0 0.00 0.00 0.00 47 1008.5
20260506130624 68 0.0 0.0 0.00 0.00 0.00 49 1008.6
20260506124620 67 0.0 0.0 0.00 0.00 0.00 49 1008.7
20260506122616 68 0.0 0.0 0.00 0.00 0.00 49 1008.6
20260506120612 66 0.0 0.0 0.00 0.00 0.00 51 1008.7
20260506114607 65 0.0 0.0 0.00 0.00 0.00 50 1008.8
20260506112603 66 0.0 0.0 0.00 0.00 0.00 51 1008.9
20260506110559 64 0.0 0.0 0.00 0.00 0.00 54 1009.1
20260506104555 63 0.0 0.0 0.00 0.00 0.00 56 1009.3
20260506102550 61 0.0 0.0 0.00 0.00 0.00 57 1009.5
20260506100546 60 0.0 0.0 0.00 0.00 0.00 58 1009.5
20260506094542 60 0.0 0.0 0.00 0.00 0.00 58 1009.7
20260506092538 59 0.0 0.0 0.00 0.00 0.00 58 1009.8
20260506090534 60 0.0 0.0 0.00 0.00 0.00 59 1009.7
20260506084529 58 0.0 0.0 0.00 0.00 0.00 60 1009.8
20260506082525 57 0.0 0.0 0.00 0.00 0.00 60 1010.0
20260506080521 57 0.0 0.0 0.00 0.00 0.00 61 1010.1
20260506072512 56 0.0 0.0 0.00 0.00 0.00 62 1010.1
20260506070508 54 0.0 0.0 0.00 0.00 0.00 64 1009.9
20260506062459 55 0.0 0.0 0.00 0.00 0.00 64 1009.9
20260506060455 54 0.0 0.0 0.00 0.00 0.00 65 1010.1
20260506050442 52 0.0 0.0 0.00 0.00 0.00 66 1010.5
20260506044437 51 0.0 0.0 0.00 0.00 0.00 66 1010.7
20260506042432 51 0.0 0.0 0.00 0.00 0.00 66 1010.9
20260506040428 52 0.0 0.0 0.00 0.00 0.00 66 1011.0
20260506034423 51 0.0 0.0 0.00 0.00 0.00 66 1011.2
20260506032418 51 0.0 0.0 0.00 0.00 0.00 66 1011.2
20260506030413 51 0.0 0.0 0.00 0.00 0.00 65 1011.6
20260506024409 51 0.0 0.0 0.00 0.00 0.00 66 1011.5
20260506022404 51 0.0 0.0 0.00 0.00 0.00 66 1011.9
20260506020400 50 0.0 0.0 0.00 0.00 0.00 67 1012.1
20260506014356 51 0.0 0.0 0.00 0.00 0.00 67 1012.0
20260506012351 51 0.0 0.0 0.00 0.00 0.00 65 1012.1
20260506010347 52 0.0 0.0 0.00 0.00 0.00 64 1012.5
20260506004343 52 0.0 0.0 0.00 0.00 0.00 64 1013.0
20260506002338 52 0.0 0.0 0.00 0.00 0.00 63 1013.4
20260506000334 52 0.0 0.0 0.00 0.00 0.00 63 1013.6
20260505234330 52 0.0 0.0 0.00 0.00 0.00 63 1014.0
20260505232326 52 0.0 0.0 0.00 0.00 0.00 63 1014.0
20260505230321 52 0.0 0.0 0.00 0.00 0.00 63 1013.9
20260505224317 52 0.0 0.0 0.00 0.00 0.00 63 1014.1
20260505222312 52 0.0 0.0 0.00 0.00 0.00 63 1014.4